This is the latest recevied weather packets stored in our database for station/object WV8BRW. If no packets are shown the sender has not sent any weather packets the latest 10 day(s).
| Time | Temp. | Humidity | Pressure | Rain* | Wind** | Luminosity | Snow |
|---|---|---|---|---|---|---|---|
| 1778070534 | 15° C | 99% | 1006.9 hPa | 0 mm | - | 22 W/m² | - |
| 1778070231 | 15° C | 99% | 1006.5 hPa | 0 mm | - | 19 W/m² | - |
| 1778069929 | 15° C | 99% | 1006.4 hPa | 0 mm | - | 22 W/m² | - |
| 1778069626 | 15° C | 99% | 1006.5 hPa | 0 mm | - | 20 W/m² | - |
| 1778069323 | 15° C | 99% | 1006.4 hPa | 0 mm | - | 15 W/m² | - |
| 1778069021 | 15° C | 99% | 1006 hPa | 0 mm | - | 12 W/m² | - |
| 1778068718 | 14.44° C | 99% | 1006.3 hPa | 0 mm | - | 10 W/m² | - |
| 1778068416 | 14.44° C | 99% | 1006.3 hPa | 0 mm | - | 11 W/m² | - |
| 1778068114 | 14.44° C | 99% | 1006.4 hPa | 0 mm | - | 8 W/m² | - |
| 1778067811 | 14.44° C | 99% | 1006.2 hPa | 0 mm | - | 8 W/m² | - |
| 1778067510 | 14.44° C | 99% | 1006 hPa | 0 mm | - | 8 W/m² | - |
| 1778067207 | 14.44° C | 99% | 1005.9 hPa | 0 mm | - | 8 W/m² | - |
| 1778066903 | 14.44° C | 99% | 1005.5 hPa | 0 mm | - | 7 W/m² | - |
| 1778066600 | 14.44° C | 99% | 1005.6 hPa | 1.78 mm | - | 11 W/m² | - |
| 1778066298 | 14.44° C | 99% | 1005.8 hPa | 1.78 mm | - | 9 W/m² | - |
| 1778065996 | 14.44° C | 99% | 1005.8 hPa | 0 mm | - | 8 W/m² | - |
| 1778065693 | 14.44° C | 99% | 1005.6 hPa | 1.27 mm | - | 4 W/m² | - |
| 1778065390 | 14.44° C | 99% | 1005.9 hPa | 1.27 mm | - | 2 W/m² | - |
| 1778065087 | 14.44° C | 99% | 1005.8 hPa | 1.78 mm | - | 1 W/m² | - |
| 1778064784 | 14.44° C | 99% | 1006 hPa | 3.05 mm | - | 2 W/m² | - |
| 1778064481 | 14.44° C | 99% | 1005.9 hPa | 4.32 mm | - | 0 W/m² | - |
| 1778064179 | 14.44° C | 99% | 1005.9 hPa | 4.83 mm | - | 0 W/m² | - |
| 1778063876 | 14.44° C | 99% | 1005.8 hPa | 3.05 mm | - | 0 W/m² | - |
| 1778063573 | 14.44° C | 99% | 1005.9 hPa | 3.05 mm | - | 0 W/m² | - |
| 1778063271 | 14.44° C | 99% | 1005.8 hPa | 1.78 mm | - | 0 W/m² | - |
* Rain latest hour (hover to see other rain measurements)
** Current wind speed in m/s (hover to see current wind gust speed)